Location: Newark
(34.0635°N, 86.7609°W)
Time: 05:36:29
(UTC+00:00)

N. Korean satellite - Pass Details

Date: 21 December 2019
Orbit: 454 x 508 km, 97.2° (Epoch: 20 January)

Event Time Altitude Azimuth Distance (km) Brightness Sun altitude
Rises 23:25:15 0° 188° (S) 2,585 10.7 -9.0°
Reaches altitude 10° 23:27:31 10° 199° (SSW) 1,700 9.9 -9.4°
Maximum altitude 23:30:47 30° 262° (W) 903 8.8 -10.1°
Drops below altitude 10° 23:34:02 10° 326° (NW) 1,689 9.5 -10.7°
Sets 23:36:16 0° 337° (NNW) 2,565 10.3 -11.1°
